Ypsilanti, MI (48198)

4:14 AM EST on February 14, 2016 (GMT -0500)
Ypsilanti Twp NE | | Change Station
CLOSE
Current Station
Personal Weather Station
Location: Ypsilanti, MI
Elevation: 761 ft
Nearby Weather Stations

Elev 761 ft 42.26 °N, 83.59 °W | Updated 4 minutes ago

Mostly Cloudy
Mostly Cloudy
-0.9 °F
Feels Like -1 °F
N
0.0
Wind Variable Wind from West
Gusts 0.0 mph

Today
High -- | Low -- °F
--% Chance of Precip.
Yesterday
High -- | Low -- °F
Precip. -- in
Pressure 30.53 in
Visibility 10.0 miles
Clouds Clear
Windchill -1 °F
Dew Point -4 °F
Humidity 88%
Rainfall in
Snow Depth Not available.
7:32 AM 6:05 PM
Waxing Crescent, 39% visible
METAR KYIP 140853Z AUTO VRB03KT 10SM CLR M16/M21 A3048 RMK AO2 SLP336 I1000 I3000 T11561206 53004 TSNO
Pressure 30.53 in
Visibility 10.0 miles
Clouds Clear
Windchill -1 °F
Dew Point -4 °F
Humidity 88%
Rainfall in
Snow Depth Not available.
7:32 AM 6:05 PM
Waxing Crescent, 39% visible
METAR KYIP 140853Z AUTO VRB03KT 10SM CLR M16/M21 A3048 RMK AO2 SLP336 I1000 I3000 T11561206 53004 TSNO

10-Day Weather Forecast

Almanac

Astronomy

Feb. 14, 2016 Rise Set
Actual Time
Civil Twilight
Nautical Twilight
Astronomical Twilight
Moon
Length of Visible Light
Length of Day
Tomorrow will be .
, % of the Moon is Illuminated

Today's Extremes

State Highs State Lows

Community

WunderPhotos

Upload Photos

1,892,763 photos uploaded!

WunderBlog® & News

Nearby

Air Quality

  Air Quality AQ Index Pollutant
Not available.

Snow Depth

Station Depth Elevation

Earthquake Activity

City Distance Mag. Time & Date
Minimum magnitude displayed is 2.5.

Coastal Water Temperatures

Place Temperature

Stations

Nearby Weather Stations

Station Location Temp. Windchill Dew Point Humidity Wind Precip. Elev Updated Type
                   

Watches & Warnings

There are currently no watches in effect.